Location: Freistadt
(48.5112°N, 14.5013°E)
Time: 09:14:27
(UTC+01:00)

N. Korean satellite - Pass Details

Date: 03 December 2022
Orbit: 407 x 442 km, 97.3° (Epoch: 04 February)

Event Time Altitude Azimuth Distance (km) Brightness Sun altitude
Rises 17:14:50 0° 198° (SSW) 2,445 10.8 -10.6°
Reaches altitude 10° 17:17:11 10° 216° (SW) 1,590 10.1 -11.0°
Maximum altitude 17:19:50 21° 267° (W) 1,092 9.4 -11.4°
Drops below altitude 10° 17:22:33 10° 318° (NW) 1,623 9.5 -11.8°
Sets 17:24:59 0° 335° (NNW) 2,513 10.3 -12.2°
